Location: Peebles
(55.6412°N, 3.1714°W)
Time: 12:32:56
(UTC+00:00)

RS-15 - Pass Details

Date: 05 December 2023
Orbit: 1893 x 2151 km, 64.8° (Epoch: 02 March)

Event Time Altitude Azimuth Distance (km) Brightness Sun altitude
Rises 23:32:12 0° 257° (WSW) 5,631 10.5 -56.3°
Enters shadow 23:33:56 - 258° (WSW) 5,135 10.2 -56.3°
Exits shadow 23:56:23 20° 56° (ENE) 3,689 9.5 -56.8°
Drops below altitude 10° 23:59:00 10° 61° (ENE) 4,409 10.0 -56.8°
Sets 00:02:22 0° 66° (ENE) 5,379 10.5 -56.8°
